Simultaneous Nadir Overpasses (SNOs) Predictions

Prediction of SNOs between GOES-15 and TERRA Satellite Orbit:

Table of predicted SNOs for the next 14.0 days since TLE Epoch: 2/24/2014
Index Date Time (GOES-15) GOES-15 Lat,Lon TERRA Lat,Lon Distance(km) Time Diff (sec)
1 02/25/2014 07:22:09 -0.07,-135.13 0.27,-133.45 190.73 80
2 02/25/2014 19:43:24 0.07,-135.15 0.79,-138.61 393.67 80
3 02/27/2014 19:31:13 0.07,-135.09 0.21,-135.65 64.04 80
4 03/01/2014 19:21:41 0.07,-135.03 -0.40,-132.69 265.60 80
5 03/02/2014 07:43:04 -0.07,-134.98 -0.71,-137.88 329.84 80
6 03/04/2014 07:30:52 -0.07,-134.92 -0.08,-134.92 1.06 80
7 03/06/2014 07:15:59 -0.06,-134.84 0.52,-131.95 328.35 80
8 03/06/2014 19:37:15 0.06,-134.85 0.52,-137.12 256.79 80
9 03/08/2014 19:27:42 0.06,-134.78 -0.10,-134.15 71.72 80




NCC Satellite Simultaneous Nadir Overpasses (SNOs) Prediction Service
